Retour au catalogue

STARLINK-31674

ActifCommunicationsVLEO
NORAD 59517·PAYLOAD·🇺🇸 United States

Lancé Apr 17, 2024 depuis Cape Canaveral Space Force Station

Loading…

Prochains Passages (prochaines 24 heures)

TLE

FraisSource: CelesTrak SupGP

Époque: Sep 15, 2026, 02:40 UTC

1 59517C 24073G   26258.11159722  .00043067  00000+0  15592-2 0  2585
2 59517  43.0019 328.1800 0001454 269.9160 184.4693 15.27572022    14

Suivez STARLINK-31674 en temps réel avec AllMySat

Download on the App Store